When you browse on this site, cookies collect data to enhance your experience and personalize the content and advertising you see.
Visit our Privacy Policy to learn more. By continuing to use the site, you agree to this use of cookies and data.
  • In Portugal
  • List of Countries
  • For 7 days
  • Water Temperature
  • Weather Map
  • Weather Widgets
  • user-avatar
    Login

    Hourly Weather Dvoreckaya Sloboda

    Today, 22 January, Wednesday

    Time Temperature Precipitation Wind Pressure Humidity
    00:00 +2°C° 0 mm 7 mps 750 mmHg 89%
    01:00 +2°C° 0 mm 7 mps 750 mmHg 89%
    02:00 +2°C° 0 mm 6 mps 749 mmHg 89%
    03:00 0°C° 0 mm 7 mps 748 mmHg 89%
    04:00 0°C° 0 mm 7 mps 747 mmHg 89%
    05:00 0°C° 0 mm 7 mps 746 mmHg 89%
    06:00 0°C° 0 mm 7 mps 745 mmHg 90%
    07:00 0°C° 0 mm 8 mps 745 mmHg 91%
    08:00 0°C° 0 mm 8 mps 744 mmHg 92%
    09:00 0°C° 0.5 mm 8 mps 744 mmHg 94%
    10:00 0°C° 0.5 mm 7 mps 743 mmHg 95%
    11:00 -1°C° 0.5 mm 7 mps 742 mmHg 96%
    12:00 +1°C° 0.5 mm 6 mps 742 mmHg 92%
    13:00 +1°C° 0.5 mm 6 mps 742 mmHg 88%
    14:00 +1°C° 0.5 mm 6 mps 742 mmHg 84%
    15:00 +1°C° 0.2 mm 6 mps 742 mmHg 82%
    16:00 -1°C° 0.2 mm 6 mps 742 mmHg 81%
    17:00 -1°C° 0.2 mm 7 mps 742 mmHg 80%
    18:00 -1°C° 0 mm 6 mps 743 mmHg 77%
    19:00 -2°C° 0 mm 6 mps 743 mmHg 74%
    20:00 -2°C° 0 mm 6 mps 744 mmHg 71%
    21:00 -3°C° 0 mm 6 mps 745 mmHg 72%
    22:00 -3°C° 0 mm 6 mps 745 mmHg 73%
    23:00 -3°C° 0 mm 6 mps 746 mmHg 74%

    Tomorrow, 23 January, Thursday

    Time Temperature Precipitation Wind Pressure Humidity
    00:00 -3°C° 0 mm 6 mps 746 mmHg 73%
    01:00 -3°C° 0 mm 6 mps 747 mmHg 71%
    02:00 -3°C° 0 mm 7 mps 748 mmHg 70%
    03:00 -3°C° 0 mm 7 mps 748 mmHg 67%
    04:00 -4°C° 0 mm 7 mps 748 mmHg 65%
    05:00 -4°C° 0 mm 7 mps 749 mmHg 62%
    06:00 -4°C° 0 mm 6 mps 749 mmHg 62%
    07:00 -4°C° 0 mm 6 mps 750 mmHg 62%
    08:00 -5°C° 0 mm 5 mps 751 mmHg 62%
    09:00 -4°C° 0 mm 6 mps 751 mmHg 61%
    10:00 -3°C° 0 mm 6 mps 752 mmHg 59%
    11:00 -2°C° 0 mm 7 mps 752 mmHg 57%
    12:00 -2°C° 0 mm 6 mps 753 mmHg 57%
    13:00 -2°C° 0 mm 6 mps 753 mmHg 56%
    14:00 -1°C° 0 mm 6 mps 753 mmHg 56%
    15:00 -1°C° 0 mm 5 mps 753 mmHg 63%
    16:00 -2°C° 0 mm 5 mps 753 mmHg 69%
    17:00 -2°C° 0 mm 4 mps 753 mmHg 75%
    18:00 -2°C° 0 mm 5 mps 753 mmHg 75%
    19:00 -2°C° 0 mm 5 mps 753 mmHg 75%
    20:00 -2°C° 0 mm 5 mps 753 mmHg 75%
    21:00 -2°C° 0 mm 5 mps 753 mmHg 77%
    22:00 -2°C° 0 mm 4 mps 753 mmHg 78%
    23:00 -2°C° 0 mm 4 mps 753 mmHg 80%

    Day after tomorrow, 24 January, Friday

    Time Temperature Precipitation Wind Pressure Humidity
    00:00 -2°C° 0 mm 4 mps 753 mmHg 81%
    01:00 -2°C° 0 mm 4 mps 753 mmHg 82%
    02:00 -2°C° 0 mm 4 mps 752 mmHg 83%
    03:00 -2°C° 0 mm 5 mps 752 mmHg 82%
    04:00 -2°C° 0 mm 5 mps 751 mmHg 80%
    05:00 -3°C° 0 mm 6 mps 751 mmHg 79%
    06:00 -3°C° 0.1 mm 6 mps 750 mmHg 81%
    07:00 -3°C° 0.1 mm 6 mps 750 mmHg 84%
    08:00 -3°C° 0.1 mm 6 mps 749 mmHg 86%
    09:00 -2°C° 0 mm 6 mps 749 mmHg 86%
    10:00 -1°C° 0 mm 6 mps 749 mmHg 86%
    11:00 -1°C° 0 mm 7 mps 749 mmHg 87%
    12:00 0°C° 0 mm 7 mps 749 mmHg 87%
    13:00 0°C° 0 mm 7 mps 748 mmHg 87%
    14:00 0°C° 0 mm 7 mps 748 mmHg 87%
    15:00 +1°C° 0 mm 6 mps 748 mmHg 88%
    16:00 +1°C° 0 mm 6 mps 748 mmHg 88%
    17:00 +1°C° 0 mm 6 mps 747 mmHg 89%
    18:00 +1°C° 0 mm 6 mps 747 mmHg 89%
    19:00 -1°C° 0 mm 6 mps 748 mmHg 89%
    20:00 -1°C° 0 mm 6 mps 748 mmHg 89%
    21:00 0°C° 0 mm 5 mps 747 mmHg 89%
    22:00 0°C° 0 mm 5 mps 747 mmHg 89%
    23:00 0°C° 0 mm 5 mps 747 mmHg 89%

    25 January, Saturday

    Time Temperature Precipitation Wind Pressure Humidity
    00:00 0°C° 0.1 mm 5 mps 746 mmHg 89%
    01:00 0°C° 0.1 mm 5 mps 746 mmHg 89%
    02:00 0°C° 0.1 mm 5 mps 746 mmHg 90%
    03:00 0°C° 0.3 mm 5 mps 746 mmHg 92%
    04:00 0°C° 0.3 mm 5 mps 746 mmHg 94%
    05:00 0°C° 0.3 mm 5 mps 745 mmHg 96%
    06:00 0°C° 0 mm 5 mps 745 mmHg 94%
    07:00 0°C° 0 mm 5 mps 745 mmHg 92%
    08:00 -1°C° 0 mm 5 mps 746 mmHg 90%
    09:00 0°C° 0 mm 5 mps 746 mmHg 89%
    10:00 -1°C° 0 mm 6 mps 746 mmHg 88%
    11:00 -1°C° 0 mm 6 mps 746 mmHg 87%
    12:00 +1°C° 0 mm 6 mps 746 mmHg 86%
    13:00 +1°C° 0 mm 6 mps 746 mmHg 86%
    14:00 0°C° 0 mm 7 mps 745 mmHg 85%
    15:00 +1°C° 0 mm 6 mps 746 mmHg 85%
    16:00 +1°C° 0 mm 6 mps 746 mmHg 84%
    17:00 +1°C° 0 mm 5 mps 746 mmHg 84%
    18:00 +1°C° 0 mm 5 mps 746 mmHg 83%
    19:00 0°C° 0 mm 5 mps 746 mmHg 81%
    20:00 0°C° 0 mm 5 mps 747 mmHg 79%
    21:00 0°C° 0 mm 4 mps 747 mmHg 81%
    22:00 -1°C° 0 mm 4 mps 748 mmHg 83%
    23:00 -1°C° 0 mm 4 mps 748 mmHg 85%

    26 January, Sunday

    Time Temperature Precipitation Wind Pressure Humidity
    00:00 -2°C° 0 mm 4 mps 748 mmHg 87%
    01:00 -2°C° 0 mm 4 mps 749 mmHg 88%
    02:00 -1°C° 0 mm 3 mps 749 mmHg 90%
    03:00 -1°C° 0 mm 3 mps 749 mmHg 91%
    04:00 -2°C° 0 mm 3 mps 749 mmHg 92%
    05:00 -2°C° 0 mm 3 mps 749 mmHg 93%
    06:00 -2°C° 0 mm 3 mps 750 mmHg 94%
    07:00 -2°C° 0 mm 3 mps 750 mmHg 94%
    08:00 -2°C° 0 mm 3 mps 750 mmHg 94%
    09:00 -1°C° 0 mm 3 mps 750 mmHg 89%
    10:00 0°C° 0 mm 3 mps 751 mmHg 85%
    11:00 +1°C° 0 mm 3 mps 751 mmHg 80%
    12:00 +1°C° 0 mm 3 mps 751 mmHg 79%
    13:00 +1°C° 0 mm 4 mps 751 mmHg 77%
    14:00 +1°C° 0 mm 4 mps 751 mmHg 76%
    15:00 +2°C° 0 mm 3 mps 751 mmHg 78%
    16:00 +2°C° 0 mm 3 mps 751 mmHg 80%
    17:00 +2°C° 0 mm 2 mps 751 mmHg 82%
    18:00 +2°C° 0 mm 2 mps 751 mmHg 84%
    19:00 +2°C° 0 mm 2 mps 752 mmHg 86%
    20:00 +2°C° 0 mm 2 mps 752 mmHg 88%
    21:00 +2°C° 0 mm 2 mps 752 mmHg 88%
    22:00 +1°C° 0 mm 2 mps 752 mmHg 88%
    23:00 +1°C° 0 mm 2 mps 752 mmHg 88%

    27 January, Monday

    Time Temperature Precipitation Wind Pressure Humidity
    00:00 +1°C° 0 mm 2 mps 752 mmHg 87%
    01:00 +1°C° 0 mm 2 mps 752 mmHg 87%
    02:00 +1°C° 0 mm 2 mps 752 mmHg 86%
    03:00 +1°C° 0 mm 2 mps 751 mmHg 86%
    04:00 +1°C° 0 mm 2 mps 751 mmHg 85%
    05:00 0°C° 0 mm 3 mps 751 mmHg 85%
    06:00 0°C° 0 mm 3 mps 750 mmHg 89%
    07:00 0°C° 0 mm 3 mps 750 mmHg 92%
    08:00 -1°C° 0 mm 3 mps 750 mmHg 96%
    09:00 0°C° 0.1 mm 3 mps 750 mmHg 96%
    10:00 -1°C° 0.1 mm 4 mps 750 mmHg 96%
    11:00 0°C° 0.1 mm 4 mps 750 mmHg 96%
    12:00 0°C° 0 mm 4 mps 749 mmHg 93%
    13:00 0°C° 0 mm 4 mps 749 mmHg 89%
    14:00 +1°C° 0 mm 4 mps 748 mmHg 86%
    15:00 0°C° 0 mm 4 mps 748 mmHg 87%
    16:00 0°C° 0 mm 4 mps 748 mmHg 88%
    17:00 0°C° 0 mm 4 mps 748 mmHg 90%
    18:00 0°C° 0 mm 4 mps 747 mmHg 91%
    19:00 0°C° 0 mm 4 mps 747 mmHg 92%
    20:00 0°C° 0 mm 4 mps 747 mmHg 93%
    21:00 0°C° 0.2 mm 4 mps 747 mmHg 95%
    22:00 0°C° 0.2 mm 4 mps 747 mmHg 96%
    23:00 +1°C° 0.2 mm 3 mps 747 mmHg 97%
    Show more